Location: Góry Miechowskie
(50.3599°N, 20.1803°E)
Time: 22:07:29
(UTC+00:00)

Tiros 1 despin weight - Pass Details

Date: 15 September 2024
Orbit: 572 x 614 km, 48.2° (Epoch: 12 October)

Event Time Altitude Azimuth Distance (km) Brightness Sun altitude
Rises 05:31:21 0° 273° (W) 2,887 ? 11.2°
Reaches altitude 10° 05:33:41 10° 270° (W) 1,981 ? 11.6°
Maximum altitude 05:38:10 60° 191° (SSW) 707 ? 12.3°
Drops below altitude 10° 05:42:38 10° 112° (ESE) 1,971 ? 13.0°
Sets 05:44:57 0° 109° (ESE) 2,871 ? 13.4°
